Time,TemperatureF,DewpointF,PressureIn,WindDirection,WindDirectionDegrees,WindSpeedMPH,WindSpeedGustMPH,Humidity,HourlyPrecipIn,Conditions,Clouds,dailyrainin,SoftwareType,DateUTC
2013-08-13 00:01:00,74.0,69.6,31.97,SSE,164,0.0,1.0,86,0.00,,---,0.00,VWS V14.00,2013-08-13 04:01:00,
2013-08-13 00:03:00,74.0,69.9,31.97,SSE,164,0.0,1.0,87,0.00,,---,0.00,VWS V14.00,2013-08-13 04:03:00,
2013-08-13 00:06:00,73.9,69.8,31.97,SSE,165,0.0,1.0,87,0.00,,---,0.00,VWS V14.00,2013-08-13 04:06:00,
2013-08-13 00:11:00,73.7,69.3,31.97,SSE,165,0.0,0.0,86,0.00,,---,0.00,VWS V14.00,2013-08-13 04:11:00,
2013-08-13 00:17:00,73.7,68.9,31.97,SSE,164,0.0,0.0,85,0.00,,---,0.00,VWS V14.00,2013-08-13 04:17:00,
2013-08-13 00:22:00,73.8,69.3,31.97,SSE,165,0.0,0.0,86,0.00,,---,0.00,VWS V14.00,2013-08-13 04:22:00,
2013-08-13 00:27:00,73.7,68.9,31.97,SSE,165,0.0,0.0,85,0.00,,---,0.00,VWS V14.00,2013-08-13 04:27:00,
2013-08-13 00:32:00,73.9,69.4,31.97,SSE,164,0.0,2.0,86,0.00,,---,0.00,VWS V14.00,2013-08-13 04:32:00,
2013-08-13 00:37:00,73.9,69.1,31.97,SSE,165,0.0,2.0,85,0.00,,---,0.00,VWS V14.00,2013-08-13 04:37:00,
2013-08-13 00:42:00,73.9,69.1,31.97,SSE,165,0.0,0.0,85,0.00,,---,0.00,VWS V14.00,2013-08-13 04:42:00,
2013-08-13 00:47:00,73.7,68.9,31.97,SSE,164,0.0,0.0,85,0.00,,---,0.00,VWS V14.00,2013-08-13 04:47:00,
2013-08-13 00:52:00,73.6,69.2,31.97,SSE,165,0.0,1.0,86,0.00,,---,0.00,VWS V14.00,2013-08-13 04:52:00,
2013-08-13 00:57:00,73.5,69.1,31.97,SSE,164,0.0,1.0,86,0.00,,---,0.00,VWS V14.00,2013-08-13 04:57:00,
2013-08-13 01:02:00,73.3,68.9,31.97,SSE,165,0.0,1.0,86,0.00,,---,0.00,VWS V14.00,2013-08-13 05:02:00,
2013-08-13 01:07:00,73.2,68.8,31.97,SSE,165,0.0,0.0,86,0.00,,---,0.00,VWS V14.00,2013-08-13 05:07:00,
2013-08-13 01:12:00,73.2,69.1,25.46,SSE,164,0.0,0.0,87,0.00,,---,0.00,VWS V14.00,2013-08-13 05:12:00,
2013-08-13 01:17:00,73.1,68.7,25.46,SSE,165,0.0,1.0,86,0.00,,---,0.00,VWS V14.00,2013-08-13 05:17:00,
2013-08-13 01:22:00,73.1,68.7,25.46,SSE,165,0.0,1.0,86,0.00,,---,0.00,VWS V14.00,2013-08-13 05:22:00,
2013-08-13 01:27:00,73.0,68.6,25.46,SSE,165,0.0,1.0,86,0.00,,---,0.00,VWS V14.00,2013-08-13 05:27:00,
2013-08-13 01:32:00,72.9,68.5,25.46,SSE,165,0.0,1.0,86,0.00,,---,0.00,VWS V14.00,2013-08-13 05:32:00,
2013-08-13 01:38:00,72.8,68.4,25.46,SSE,164,0.0,1.0,86,0.00,,---,0.00,VWS V14.00,2013-08-13 05:38:00,
2013-08-13 01:43:00,72.6,68.5,25.46,SSE,165,0.0,1.0,87,0.00,,---,0.00,VWS V14.00,2013-08-13 05:43:00,
2013-08-13 01:48:00,72.4,68.3,25.46,SSE,164,0.0,1.0,87,0.00,,---,0.00,VWS V14.00,2013-08-13 05:48:00,
2013-08-13 01:53:00,72.3,68.2,25.46,SSE,164,0.0,1.0,87,0.00,,---,0.00,VWS V14.00,2013-08-13 05:53:00,
2013-08-13 01:58:00,72.1,68.0,25.46,SSE,165,0.0,1.0,87,0.00,,---,0.00,VWS V14.00,2013-08-13 05:58:00,
2013-08-13 02:03:00,72.0,67.9,25.46,SSE,165,0.0,1.0,87,0.00,,---,0.00,VWS V14.00,2013-08-13 06:03:00,
2013-08-13 02:08:00,72.0,67.9,25.46,SSE,164,2.0,3.0,87,0.00,,---,0.00,VWS V14.00,2013-08-13 06:08:00,
2013-08-13 02:13:00,72.0,67.9,25.46,SSE,165,0.0,4.0,87,0.00,,---,0.00,VWS V14.00,2013-08-13 06:13:00,
2013-08-13 02:18:00,72.0,67.9,25.46,SSE,164,0.0,4.0,87,0.00,,---,0.00,VWS V14.00,2013-08-13 06:18:00,
2013-08-13 02:23:00,72.0,67.9,25.46,SSE,165,0.0,4.0,87,0.00,,---,0.00,VWS V14.00,2013-08-13 06:23:00,
2013-08-13 02:28:00,72.0,67.9,25.46,SSE,165,0.0,4.0,87,0.00,,---,0.00,VWS V14.00,2013-08-13 06:28:00,
2013-08-13 02:33:00,71.9,67.8,25.46,SSE,165,0.0,4.0,87,0.00,,---,0.00,VWS V14.00,2013-08-13 06:33:00,
2013-08-13 02:38:00,71.9,67.8,25.46,SSE,165,0.0,4.0,87,0.00,,---,0.00,VWS V14.00,2013-08-13 06:38:00,
2013-08-13 02:43:00,71.9,67.8,25.46,SSE,165,0.0,4.0,87,0.00,,---,0.00,VWS V14.00,2013-08-13 06:43:00,
2013-08-13 02:48:00,71.8,67.7,25.46,SSE,165,0.0,4.0,87,0.00,,---,0.00,VWS V14.00,2013-08-13 06:48:00,
2013-08-13 02:54:00,71.7,67.6,25.46,SSE,164,0.0,4.0,87,0.00,,---,0.00,VWS V14.00,2013-08-13 06:54:00,
2013-08-13 02:59:00,71.6,67.5,25.46,SSE,165,0.0,4.0,87,0.00,,---,0.00,VWS V14.00,2013-08-13 06:59:00,
2013-08-13 03:04:00,71.4,67.3,25.46,SSE,165,0.0,4.0,87,0.00,,---,0.00,VWS V14.00,2013-08-13 07:04:00,
2013-08-13 03:09:00,71.3,67.2,25.46,SSE,165,0.0,0.0,87,0.00,,---,0.00,VWS V14.00,2013-08-13 07:09:00,
2013-08-13 03:14:00,71.2,67.1,25.46,SSE,165,0.0,1.0,87,0.00,,---,0.00,VWS V14.00,2013-08-13 07:14:00,
2013-08-13 03:19:00,71.1,67.4,25.46,SSE,165,0.0,1.0,88,0.00,,---,0.00,VWS V14.00,2013-08-13 07:19:00,
2013-08-13 03:24:00,71.1,67.4,25.46,SSE,165,0.0,1.0,88,0.00,,---,0.00,VWS V14.00,2013-08-13 07:24:00,
2013-08-13 03:29:00,71.0,67.3,25.46,SSE,165,0.0,1.0,88,0.00,,---,0.00,VWS V14.00,2013-08-13 07:29:00,
2013-08-13 03:34:00,70.9,67.2,25.46,SSE,165,0.0,3.0,88,0.00,,---,0.00,VWS V14.00,2013-08-13 07:34:00,
2013-08-13 03:39:00,70.8,67.1,25.46,SSE,165,0.0,0.0,88,0.00,,---,0.00,VWS V14.00,2013-08-13 07:39:00,
2013-08-13 03:44:00,70.8,67.1,25.46,SSE,164,0.0,2.0,88,0.00,,---,0.00,VWS V14.00,2013-08-13 07:44:00,
2013-08-13 03:49:00,70.7,67.0,25.46,SSE,165,0.0,3.0,88,0.00,,---,0.00,VWS V14.00,2013-08-13 07:49:00,
2013-08-13 03:54:00,70.7,67.3,25.46,SSE,165,0.0,4.0,89,0.00,,---,0.00,VWS V14.00,2013-08-13 07:54:00,
2013-08-13 03:59:00,70.6,67.2,25.46,SSE,164,0.0,4.0,89,0.00,,---,0.00,VWS V14.00,2013-08-13 07:59:00,
2013-08-13 04:04:00,70.5,67.1,25.46,SSE,164,0.0,4.0,89,0.00,,---,0.00,VWS V14.00,2013-08-13 08:04:00,
2013-08-13 04:09:00,70.4,67.0,25.46,SSE,165,1.0,2.0,89,0.00,,---,0.00,VWS V14.00,2013-08-13 08:09:00,
2013-08-13 04:15:00,70.4,66.7,25.46,SSE,168,0.0,5.0,88,0.00,,---,0.00,VWS V14.00,2013-08-13 08:15:00,
2013-08-13 04:20:00,70.3,66.6,25.46,South,169,2.0,5.0,88,0.00,,---,0.00,VWS V14.00,2013-08-13 08:20:00,
2013-08-13 04:25:00,70.3,66.6,25.46,South,171,1.0,5.0,88,0.00,,---,0.00,VWS V14.00,2013-08-13 08:25:00,
2013-08-13 04:30:00,70.3,66.6,25.46,SSW,212,5.0,9.0,88,0.00,,---,0.00,VWS V14.00,2013-08-13 08:30:00,
2013-08-13 04:35:00,70.3,66.6,25.46,WSW,240,3.0,9.0,88,0.00,,---,0.00,VWS V14.00,2013-08-13 08:35:00,
2013-08-13 04:40:00,70.3,66.6,25.46,WNW,294,0.0,6.0,88,0.00,,---,0.00,VWS V14.00,2013-08-13 08:40:00,
2013-08-13 04:45:00,70.3,66.2,25.46,WNW,284,4.0,6.0,87,0.00,,---,0.00,VWS V14.00,2013-08-13 08:45:00,
2013-08-13 04:50:00,70.3,66.2,25.46,West,273,0.0,6.0,87,0.00,,---,0.00,VWS V14.00,2013-08-13 08:50:00,
2013-08-13 04:55:00,70.2,66.2,25.46,WNW,285,2.0,6.0,87,0.00,,---,0.00,VWS V14.00,2013-08-13 08:55:00,
2013-08-13 05:00:00,70.2,66.2,25.46,West,267,4.0,7.0,87,0.00,,---,0.00,VWS V14.00,2013-08-13 09:00:00,
2013-08-13 05:05:00,70.1,66.1,25.46,West,279,4.0,7.0,87,0.00,,---,0.00,VWS V14.00,2013-08-13 09:05:00,
2013-08-13 05:10:00,70.1,65.7,25.46,West,281,2.0,5.0,86,0.00,,---,0.00,VWS V14.00,2013-08-13 09:10:00,
2013-08-13 05:15:00,70.0,65.6,25.46,WNW,283,4.0,6.0,86,0.00,,---,0.00,VWS V14.00,2013-08-13 09:15:00,
2013-08-13 05:20:00,70.0,65.6,25.46,West,273,1.0,7.0,86,0.00,,---,0.00,VWS V14.00,2013-08-13 09:20:00,
2013-08-13 05:25:00,69.9,65.5,25.46,West,281,0.0,7.0,86,0.00,,---,0.00,VWS V14.00,2013-08-13 09:25:00,
2013-08-13 05:30:00,69.8,65.4,25.46,West,279,1.0,7.0,86,0.00,,---,0.00,VWS V14.00,2013-08-13 09:30:00,
2013-08-13 05:35:00,69.8,65.4,25.46,West,263,1.0,7.0,86,0.00,,---,0.00,VWS V14.00,2013-08-13 09:35:00,
2013-08-13 05:41:00,69.7,65.7,25.46,West,264,0.0,4.0,87,0.00,,---,0.00,VWS V14.00,2013-08-13 09:41:00,
2013-08-13 05:46:00,69.7,65.7,25.46,West,272,0.0,4.0,87,0.00,,---,0.00,VWS V14.00,2013-08-13 09:46:00,
2013-08-13 05:51:00,69.6,65.6,25.46,West,272,1.0,4.0,87,0.00,,---,0.00,VWS V14.00,2013-08-13 09:51:00,
2013-08-13 05:56:00,69.7,65.7,25.46,West,272,0.0,4.0,87,0.00,,---,0.00,VWS V14.00,2013-08-13 09:56:00,
2013-08-13 06:01:00,69.6,65.6,25.46,West,271,2.0,4.0,87,0.00,,---,0.00,VWS V14.00,2013-08-13 10:01:00,
2013-08-13 06:06:00,69.6,65.6,25.46,WNW,285,1.0,6.0,87,0.00,,---,0.00,VWS V14.00,2013-08-13 10:06:00,
2013-08-13 06:11:00,69.6,65.6,25.46,West,279,3.0,5.0,87,0.00,,---,0.00,VWS V14.00,2013-08-13 10:11:00,
2013-08-13 06:16:00,69.6,65.9,25.46,West,279,0.0,5.0,88,0.00,,---,0.00,VWS V14.00,2013-08-13 10:16:00,
2013-08-13 06:21:00,69.5,65.8,23.46,West,279,2.0,5.0,88,0.00,,---,0.00,VWS V14.00,2013-08-13 10:21:00,
2013-08-13 06:26:00,69.5,65.8,23.46,WNW,283,0.0,5.0,88,0.00,,---,0.00,VWS V14.00,2013-08-13 10:26:00,
2013-08-13 06:31:00,69.5,65.8,23.46,West,280,0.0,5.0,88,0.00,,---,0.00,VWS V14.00,2013-08-13 10:31:00,
2013-08-13 06:36:00,69.5,65.8,23.46,West,279,2.0,5.0,88,0.00,,---,0.00,VWS V14.00,2013-08-13 10:36:00,
2013-08-13 06:41:00,69.5,65.8,23.46,WNW,288,2.0,5.0,88,0.00,,---,0.00,VWS V14.00,2013-08-13 10:41:00,
2013-08-13 06:46:00,69.6,65.9,23.46,WNW,291,2.0,5.0,88,0.00,,---,0.00,VWS V14.00,2013-08-13 10:46:00,
2013-08-13 06:51:00,69.7,66.0,23.46,WNW,291,4.0,5.0,88,0.00,,---,0.00,VWS V14.00,2013-08-13 10:51:00,
2013-08-13 06:57:00,69.7,66.0,23.46,WNW,297,5.0,7.0,88,0.00,,---,0.00,VWS V14.00,2013-08-13 10:57:00,
2013-08-13 07:02:00,69.8,66.1,23.46,NW,304,5.0,7.0,88,0.00,,---,0.00,VWS V14.00,2013-08-13 11:02:00,
2013-08-13 07:07:00,69.9,66.5,23.46,NW,307,4.0,7.0,89,0.00,,---,0.00,VWS V14.00,2013-08-13 11:07:00,
2013-08-13 07:12:00,69.9,66.5,23.46,NW,321,3.0,5.0,89,0.00,,---,0.00,VWS V14.00,2013-08-13 11:12:00,
2013-08-13 07:17:00,70.0,66.6,23.46,NW,307,2.0,6.0,89,0.00,,---,0.00,VWS V14.00,2013-08-13 11:17:00,
2013-08-13 07:22:00,70.1,66.7,23.46,NW,309,0.0,6.0,89,0.00,,---,0.00,VWS V14.00,2013-08-13 11:22:00,
2013-08-13 07:27:00,70.2,66.8,23.46,NNW,327,2.0,8.0,89,0.00,,---,0.00,VWS V14.00,2013-08-13 11:27:00,
2013-08-13 07:32:00,70.3,66.9,23.46,NNW,338,0.0,8.0,89,0.00,,---,0.00,VWS V14.00,2013-08-13 11:32:00,
2013-08-13 07:37:00,70.4,67.0,23.46,NNW,337,0.0,8.0,89,0.00,,---,0.00,VWS V14.00,2013-08-13 11:37:00,
2013-08-13 07:42:00,70.4,67.0,23.46,NNW,331,0.0,4.0,89,0.00,,---,0.00,VWS V14.00,2013-08-13 11:42:00,
2013-08-13 07:47:00,70.5,67.1,23.46,NNW,332,0.0,4.0,89,0.00,,---,0.00,VWS V14.00,2013-08-13 11:47:00,
2013-08-13 07:52:00,70.6,66.9,23.46,NW,322,5.0,7.0,88,0.00,,---,0.00,VWS V14.00,2013-08-13 11:52:00,
2013-08-13 07:57:00,70.6,66.9,23.46,NW,323,7.0,10.0,88,0.00,,---,0.00,VWS V14.00,2013-08-13 11:57:00,
2013-08-13 08:02:00,70.6,66.9,23.46,NNW,335,4.0,10.0,88,0.00,,---,0.00,VWS V14.00,2013-08-13 12:02:00,
2013-08-13 08:08:00,70.6,66.9,23.46,NNW,327,6.0,6.0,88,0.00,,---,0.00,VWS V14.00,2013-08-13 12:08:00,
2013-08-13 08:13:00,70.7,67.0,23.46,NW,318,0.0,6.0,88,0.00,,---,0.00,VWS V14.00,2013-08-13 12:13:00,
2013-08-13 08:18:00,70.8,67.1,23.46,NNW,330,3.0,9.0,88,0.00,,---,0.00,VWS V14.00,2013-08-13 12:18:00,
2013-08-13 08:23:00,70.9,66.8,23.46,North,10,6.0,9.0,87,0.00,,---,0.00,VWS V14.00,2013-08-13 12:23:00,
2013-08-13 08:28:00,71.0,66.9,23.46,NW,326,5.0,9.0,87,0.00,,---,0.00,VWS V14.00,2013-08-13 12:28:00,
2013-08-13 08:33:00,71.2,67.1,23.46,NNW,329,0.0,9.0,87,0.00,,---,0.00,VWS V14.00,2013-08-13 12:33:00,
2013-08-13 08:38:00,71.3,66.9,23.46,North,11,6.0,6.0,86,0.00,,---,0.00,VWS V14.00,2013-08-13 12:38:00,
2013-08-13 08:43:00,71.3,66.9,23.46,NNW,344,4.0,7.0,86,0.00,,---,0.00,VWS V14.00,2013-08-13 12:43:00,
2013-08-13 08:48:00,71.3,66.6,23.46,NNW,340,4.0,7.0,85,0.00,,---,0.00,VWS V14.00,2013-08-13 12:48:00,
2013-08-13 08:53:00,71.5,66.8,23.46,NNW,344,2.0,7.0,85,0.00,,---,0.00,VWS V14.00,2013-08-13 12:53:00,
2013-08-13 08:58:00,71.7,66.9,23.46,North,355,4.0,7.0,85,0.00,,---,0.00,VWS V14.00,2013-08-13 12:58:00,
2013-08-13 09:03:00,71.8,66.7,23.46,North,351,3.0,7.0,84,0.00,,---,0.00,VWS V14.00,2013-08-13 13:03:00,
2013-08-13 09:08:00,72.0,66.6,23.46,NNW,331,4.0,6.0,83,0.00,,---,0.00,VWS V14.00,2013-08-13 13:08:00,
2013-08-13 09:13:00,72.0,66.6,23.46,NNW,342,5.0,7.0,83,0.00,,---,0.00,VWS V14.00,2013-08-13 13:13:00,
2013-08-13 09:18:00,72.0,66.6,23.46,NW,325,7.0,10.0,83,0.00,,---,0.00,VWS V14.00,2013-08-13 13:18:00,
2013-08-13 09:24:00,72.0,66.2,23.46,NNE,17,4.0,10.0,82,0.00,,---,0.00,VWS V14.00,2013-08-13 13:24:00,
2013-08-13 09:29:00,72.2,66.1,23.46,NNE,19,3.0,10.0,81,0.00,,---,0.00,VWS V14.00,2013-08-13 13:29:00,
2013-08-13 09:34:00,72.5,66.3,23.46,NNE,22,2.0,10.0,81,0.00,,---,0.00,VWS V14.00,2013-08-13 13:34:00,
2013-08-13 09:39:00,72.7,66.2,23.46,NNW,331,5.0,11.0,80,0.00,,---,0.00,VWS V14.00,2013-08-13 13:39:00,
2013-08-13 09:44:00,72.7,66.2,23.46,NNE,22,5.0,11.0,80,0.00,,---,0.00,VWS V14.00,2013-08-13 13:44:00,
2013-08-13 09:49:00,72.8,66.3,23.46,NNW,327,5.0,11.0,80,0.00,,---,0.00,VWS V14.00,2013-08-13 13:49:00,
2013-08-13 09:54:00,72.8,66.3,23.46,NW,318,6.0,11.0,80,0.00,,---,0.00,VWS V14.00,2013-08-13 13:54:00,
2013-08-13 09:59:00,72.9,66.4,23.46,North,350,5.0,11.0,80,0.00,,---,0.00,VWS V14.00,2013-08-13 13:59:00,
2013-08-13 10:04:00,72.9,65.7,23.46,NNW,345,6.0,11.0,78,0.00,,---,0.00,VWS V14.00,2013-08-13 14:04:00,
2013-08-13 10:09:00,72.8,65.6,23.46,NNW,345,10.0,11.0,78,0.00,,---,0.00,VWS V14.00,2013-08-13 14:09:00,
2013-08-13 10:14:00,72.8,65.2,23.46,NNW,331,7.0,11.0,77,0.00,,---,0.00,VWS V14.00,2013-08-13 14:14:00,
2013-08-13 10:19:00,72.8,64.8,23.46,NW,325,3.0,11.0,76,0.00,,---,0.00,VWS V14.00,2013-08-13 14:19:00,
2013-08-13 10:24:00,73.0,64.6,23.46,NNW,338,6.0,11.0,75,0.00,,---,0.00,VWS V14.00,2013-08-13 14:24:00,
2013-08-13 10:29:00,73.0,64.6,23.46,NNW,344,4.0,11.0,75,0.00,,---,0.00,VWS V14.00,2013-08-13 14:29:00,
2013-08-13 10:34:00,73.1,63.9,23.46,NNW,344,4.0,11.0,73,0.00,,---,0.00,VWS V14.00,2013-08-13 14:34:00,
2013-08-13 10:39:00,73.2,64.4,23.46,North,355,6.0,8.0,74,0.00,,---,0.00,VWS V14.00,2013-08-13 14:39:00,
2013-08-13 10:45:00,73.2,63.6,23.46,NNW,348,7.0,13.0,72,0.00,,---,0.00,VWS V14.00,2013-08-13 14:45:00,
2013-08-13 10:50:00,73.3,63.7,23.46,North,355,5.0,13.0,72,0.00,,---,0.00,VWS V14.00,2013-08-13 14:50:00,
2013-08-13 10:55:00,73.6,64.8,23.46,NW,318,6.0,13.0,74,0.00,,---,0.00,VWS V14.00,2013-08-13 14:55:00,
2013-08-13 11:00:00,73.8,64.2,23.46,NNW,333,6.0,13.0,72,0.00,,---,0.00,VWS V14.00,2013-08-13 15:00:00,
2013-08-13 11:05:00,73.8,64.2,23.46,NNW,329,8.0,13.0,72,0.00,,---,0.00,VWS V14.00,2013-08-13 15:05:00,
2013-08-13 11:10:00,73.9,64.7,23.46,North,360,8.0,11.0,73,0.00,,---,0.00,VWS V14.00,2013-08-13 15:10:00,
2013-08-13 11:15:00,74.1,64.5,23.46,North,5,8.0,11.0,72,0.00,,---,0.00,VWS V14.00,2013-08-13 15:15:00,
2013-08-13 11:20:00,74.3,64.7,23.46,North,350,0.0,11.0,72,0.00,,---,0.00,VWS V14.00,2013-08-13 15:20:00,
2013-08-13 11:25:00,74.4,64.8,23.46,NNW,333,10.0,12.0,72,0.00,,---,0.00,VWS V14.00,2013-08-13 15:25:00,
2013-08-13 11:26:00,74.4,64.8,23.46,North,355,9.0,12.0,72,0.00,,---,0.00,VWS V14.00,2013-08-13 15:26:00,
2013-08-13 11:31:00,74.3,65.1,23.46,NW,306,9.0,12.0,73,0.00,,---,0.00,VWS V14.00,2013-08-13 15:31:00,
2013-08-13 11:36:00,74.8,64.8,23.46,NNW,344,5.0,12.0,71,0.00,,---,0.00,VWS V14.00,2013-08-13 15:36:00,
2013-08-13 11:41:00,74.7,64.3,23.46,WNW,298,6.0,14.0,70,0.00,,---,0.00,VWS V14.00,2013-08-13 15:41:00,
2013-08-13 11:46:00,74.7,64.3,23.46,NNW,346,5.0,14.0,70,0.00,,---,0.00,VWS V14.00,2013-08-13 15:46:00,
2013-08-13 11:51:00,74.8,66.0,23.46,NNW,344,6.0,14.0,74,0.00,,---,0.00,VWS V14.00,2013-08-13 15:51:00,
2013-08-13 11:56:00,75.0,65.0,23.46,NW,323,6.0,14.0,71,0.00,,---,0.00,VWS V14.00,2013-08-13 15:56:00,
2013-08-13 12:01:00,75.0,64.6,23.46,North,355,5.0,14.0,70,0.00,,---,0.00,VWS V14.00,2013-08-13 16:01:00,
2013-08-13 12:06:00,74.9,64.9,23.46,North,5,9.0,14.0,71,0.00,,---,0.00,VWS V14.00,2013-08-13 16:06:00,
2013-08-13 12:11:00,75.0,64.6,23.46,NNW,329,8.0,11.0,70,0.00,,---,0.00,VWS V14.00,2013-08-13 16:11:00,
2013-08-13 12:16:00,75.2,64.3,23.46,NNW,344,6.0,12.0,69,0.00,,---,0.00,VWS V14.00,2013-08-13 16:16:00,
2013-08-13 12:21:00,75.5,64.6,23.46,NNW,329,3.0,12.0,69,0.00,,---,0.00,VWS V14.00,2013-08-13 16:21:00,
2013-08-13 12:26:00,75.5,64.6,23.46,NNE,14,4.0,12.0,69,0.00,,---,0.00,VWS V14.00,2013-08-13 16:26:00,
2013-08-13 12:32:00,75.4,64.5,23.46,NNW,342,8.0,13.0,69,0.00,,---,0.00,VWS V14.00,2013-08-13 16:32:00,
2013-08-13 12:37:00,75.4,64.5,23.46,NNW,336,7.0,13.0,69,0.00,,---,0.00,VWS V14.00,2013-08-13 16:37:00,
2013-08-13 12:42:00,75.4,64.1,23.46,NNW,337,7.0,12.0,68,0.00,,---,0.00,VWS V14.00,2013-08-13 16:42:00,
2013-08-13 12:47:00,75.6,64.3,23.46,North,5,7.0,12.0,68,0.00,,---,0.00,VWS V14.00,2013-08-13 16:47:00,
2013-08-13 12:52:00,75.4,64.1,23.46,North,10,5.0,12.0,68,0.00,,---,0.00,VWS V14.00,2013-08-13 16:52:00,
2013-08-13 12:57:00,75.4,64.5,23.46,NNE,31,7.0,12.0,69,0.00,,---,0.00,VWS V14.00,2013-08-13 16:57:00,
2013-08-13 13:02:00,75.6,63.9,23.46,North,355,11.0,13.0,67,0.00,,---,0.00,VWS V14.00,2013-08-13 17:02:00,
2013-08-13 13:07:00,75.8,64.1,23.46,North,360,5.0,13.0,67,0.00,,---,0.00,VWS V14.00,2013-08-13 17:07:00,
2013-08-13 13:12:00,75.8,64.1,23.46,NNW,348,7.0,11.0,67,0.00,,---,0.00,VWS V14.00,2013-08-13 17:12:00,
2013-08-13 13:17:00,75.9,64.2,23.46,North,351,5.0,11.0,67,0.00,,---,0.00,VWS V14.00,2013-08-13 17:17:00,
2013-08-13 13:23:00,76.0,64.7,23.46,NNW,342,5.0,11.0,68,0.00,,---,0.00,VWS V14.00,2013-08-13 17:23:00,
2013-08-13 13:28:00,76.1,64.4,23.46,NW,317,4.0,12.0,67,0.00,,---,0.00,VWS V14.00,2013-08-13 17:28:00,
2013-08-13 13:33:00,76.4,64.6,23.46,North,355,9.0,13.0,67,0.00,,---,0.00,VWS V14.00,2013-08-13 17:33:00,
2013-08-13 13:38:00,76.3,64.1,23.46,NNW,327,2.0,9.0,66,0.00,,---,0.00,VWS V14.00,2013-08-13 17:38:00,
2013-08-13 13:43:00,76.3,63.7,23.46,North,11,13.0,14.0,65,0.00,,---,0.00,VWS V14.00,2013-08-13 17:43:00,
2013-08-13 13:48:00,76.3,64.1,23.46,NNW,344,4.0,15.0,66,0.00,,---,0.00,VWS V14.00,2013-08-13 17:48:00,
2013-08-13 13:53:00,76.5,63.4,31.97,North,355,6.0,15.0,64,0.00,,---,0.00,VWS V14.00,2013-08-13 17:53:00,
2013-08-13 13:58:00,76.5,63.4,31.97,NW,315,10.0,15.0,64,0.00,,---,0.00,VWS V14.00,2013-08-13 17:58:00,
2013-08-13 14:03:00,76.4,64.2,31.97,NNW,339,7.0,15.0,66,0.00,,---,0.00,VWS V14.00,2013-08-13 18:03:00,
2013-08-13 14:09:00,76.4,64.2,31.97,NW,326,6.0,9.0,66,0.00,,---,0.00,VWS V14.00,2013-08-13 18:09:00,
2013-08-13 14:14:00,76.3,64.6,31.68,NW,317,4.0,9.0,67,0.00,,---,0.00,VWS V14.00,2013-08-13 18:14:00,
2013-08-13 14:19:00,76.1,64.4,31.68,WNW,294,6.0,11.0,67,0.00,,---,0.00,VWS V14.00,2013-08-13 18:19:00,
2013-08-13 14:24:00,76.3,65.0,31.68,NW,322,4.0,11.0,68,0.00,,---,0.00,VWS V14.00,2013-08-13 18:24:00,
2013-08-13 14:29:00,76.1,64.4,31.68,NW,309,7.0,15.0,67,0.00,,---,0.00,VWS V14.00,2013-08-13 18:29:00,
2013-08-13 14:35:00,76.1,64.4,31.68,North,11,10.0,15.0,67,0.00,,---,0.00,VWS V14.00,2013-08-13 18:35:00,
2013-08-13 14:40:00,76.3,65.0,31.68,NNW,336,9.0,10.0,68,0.00,,---,0.00,VWS V14.00,2013-08-13 18:40:00,
2013-08-13 14:45:00,76.2,64.9,31.68,WNW,286,5.0,13.0,68,0.00,,---,0.00,VWS V14.00,2013-08-13 18:45:00,
2013-08-13 14:50:00,76.1,63.9,31.68,NNW,336,12.0,18.0,66,0.00,,---,0.00,VWS V14.00,2013-08-13 18:50:00,
2013-08-13 14:55:00,76.0,64.3,31.68,NNW,348,9.0,18.0,67,0.00,,---,0.00,VWS V14.00,2013-08-13 18:55:00,
2013-08-13 15:00:00,75.8,64.1,31.68,West,261,7.0,18.0,67,0.00,,---,0.00,VWS V14.00,2013-08-13 19:00:00,
2013-08-13 15:05:00,75.8,64.1,31.68,NNW,331,7.0,18.0,67,0.00,,---,0.00,VWS V14.00,2013-08-13 19:05:00,
2013-08-13 15:10:00,75.7,64.0,31.68,NW,319,11.0,13.0,67,0.00,,---,0.00,VWS V14.00,2013-08-13 19:10:00,
2013-08-13 15:15:00,75.5,63.4,31.68,NNW,334,9.0,13.0,66,0.00,,---,0.00,VWS V14.00,2013-08-13 19:15:00,
2013-08-13 15:20:00,75.4,63.3,31.68,North,355,7.0,13.0,66,0.00,,---,0.00,VWS V14.00,2013-08-13 19:20:00,
2013-08-13 15:25:00,75.2,63.9,31.68,NW,325,4.0,13.0,68,0.00,,---,0.00,VWS V14.00,2013-08-13 19:25:00,
2013-08-13 15:30:00,75.2,64.3,31.68,NNW,344,3.0,13.0,69,0.00,,---,0.00,VWS V14.00,2013-08-13 19:30:00,
2013-08-13 15:35:00,75.5,63.4,31.68,NNW,336,4.0,13.0,66,0.00,,---,0.00,VWS V14.00,2013-08-13 19:35:00,
2013-08-13 15:41:00,75.7,63.5,31.68,NNW,329,4.0,8.0,66,0.00,,---,0.00,VWS V14.00,2013-08-13 19:41:00,
2013-08-13 15:46:00,75.4,63.3,31.68,WNW,301,5.0,12.0,66,0.00,,---,0.00,VWS V14.00,2013-08-13 19:46:00,
2013-08-13 15:51:00,75.3,63.6,31.68,NW,321,9.0,12.0,67,0.00,,---,0.00,VWS V14.00,2013-08-13 19:51:00,
2013-08-13 15:56:00,75.1,63.4,31.68,NNW,330,4.0,12.0,67,0.00,,---,0.00,VWS V14.00,2013-08-13 19:56:00,
2013-08-13 16:01:00,75.0,62.9,31.68,NW,326,8.0,12.0,66,0.00,,---,0.00,VWS V14.00,2013-08-13 20:01:00,
2013-08-13 16:06:00,74.8,63.1,31.68,WNW,290,5.0,13.0,67,0.00,,---,0.00,VWS V14.00,2013-08-13 20:06:00,
2013-08-13 16:11:00,74.6,62.9,31.68,NNW,333,5.0,11.0,67,0.00,,---,0.00,VWS V14.00,2013-08-13 20:11:00,
2013-08-13 16:16:00,74.5,63.3,31.68,NW,323,2.0,11.0,68,0.00,,---,0.00,VWS V14.00,2013-08-13 20:16:00,
2013-08-13 16:21:00,74.4,62.7,31.68,NW,317,8.0,11.0,67,0.00,,---,0.00,VWS V14.00,2013-08-13 20:21:00,
2013-08-13 16:26:00,74.3,62.6,31.68,NW,317,4.0,11.0,67,0.00,,---,0.00,VWS V14.00,2013-08-13 20:26:00,
2013-08-13 16:31:00,74.2,63.0,31.68,NNW,337,5.0,11.0,68,0.00,,---,0.00,VWS V14.00,2013-08-13 20:31:00,
2013-08-13 16:36:00,74.1,62.5,31.68,NW,307,6.0,11.0,67,0.00,,---,0.00,VWS V14.00,2013-08-13 20:36:00,
2013-08-13 16:41:00,74.0,62.8,31.68,NNW,327,4.0,14.0,68,0.00,,---,0.00,VWS V14.00,2013-08-13 20:41:00,
2013-08-13 16:46:00,74.0,62.4,31.68,West,276,2.0,14.0,67,0.00,,---,0.00,VWS V14.00,2013-08-13 20:46:00,
2013-08-13 16:52:00,74.0,62.4,31.68,NNW,345,4.0,14.0,67,0.00,,---,0.00,VWS V14.00,2013-08-13 20:52:00,
2013-08-13 16:57:00,73.9,62.7,31.68,NW,311,4.0,14.0,68,0.00,,---,0.00,VWS V14.00,2013-08-13 20:57:00,
2013-08-13 17:02:00,73.7,62.1,31.68,NW,309,5.0,14.0,67,0.00,,---,0.00,VWS V14.00,2013-08-13 21:02:00,
2013-08-13 17:07:00,73.5,61.9,31.68,NW,325,6.0,14.0,67,0.00,,---,0.00,VWS V14.00,2013-08-13 21:07:00,
2013-08-13 17:12:00,73.5,62.3,31.68,NW,315,3.0,9.0,68,0.00,,---,0.00,VWS V14.00,2013-08-13 21:12:00,
2013-08-13 17:17:00,73.3,62.1,31.68,NW,317,4.0,11.0,68,0.00,,---,0.00,VWS V14.00,2013-08-13 21:17:00,
2013-08-13 17:22:00,73.3,61.7,31.68,NNW,345,7.0,12.0,67,0.00,,---,0.00,VWS V14.00,2013-08-13 21:22:00,
2013-08-13 17:27:00,73.2,62.0,31.68,NNW,336,5.0,12.0,68,0.00,,---,0.00,VWS V14.00,2013-08-13 21:27:00,
2013-08-13 17:32:00,73.2,61.6,31.68,North,360,12.0,12.0,67,0.00,,---,0.00,VWS V14.00,2013-08-13 21:32:00,
2013-08-13 17:37:00,73.2,61.6,32.28,NW,309,3.0,4.0,67,0.00,,---,0.00,VWS V14.00,2013-08-13 21:37:00,
2013-08-13 17:42:00,73.3,61.3,32.28,WNW,291,3.0,10.0,66,0.00,,---,0.00,VWS V14.00,2013-08-13 21:42:00,
2013-08-13 17:47:00,73.5,62.3,32.28,NNW,344,4.0,15.0,68,0.00,,---,0.00,VWS V14.00,2013-08-13 21:47:00,
2013-08-13 17:52:00,73.4,62.2,32.28,NNW,341,2.0,16.0,68,0.00,,---,0.00,VWS V14.00,2013-08-13 21:52:00,
2013-08-13 17:57:00,73.1,61.5,32.28,NW,310,7.0,16.0,67,0.00,,---,0.00,VWS V14.00,2013-08-13 21:57:00,
2013-08-13 18:03:00,72.8,61.2,32.28,NNW,333,13.0,16.0,67,0.00,,---,0.00,VWS V14.00,2013-08-13 22:03:00,
2013-08-13 18:08:00,72.7,60.3,32.28,NW,321,7.0,12.0,65,0.00,,---,0.00,VWS V14.00,2013-08-13 22:08:00,
2013-08-13 18:13:00,72.8,60.4,32.28,NNW,345,10.0,14.0,65,0.00,,---,0.00,VWS V14.00,2013-08-13 22:13:00,
2013-08-13 18:18:00,72.9,60.5,32.28,NW,323,12.0,15.0,65,0.00,,---,0.00,VWS V14.00,2013-08-13 22:18:00,
2013-08-13 18:23:00,72.9,60.5,32.28,NNE,25,3.0,15.0,65,0.00,,---,0.00,VWS V14.00,2013-08-13 22:23:00,
2013-08-13 18:28:00,72.9,60.9,32.28,North,360,5.0,17.0,66,0.00,,---,0.00,VWS V14.00,2013-08-13 22:28:00,
2013-08-13 18:33:00,72.9,60.5,32.28,WNW,300,12.0,17.0,65,0.00,,---,0.00,VWS V14.00,2013-08-13 22:33:00,
2013-08-13 18:38:00,72.6,59.7,32.28,NNW,334,9.0,14.0,64,0.00,,---,0.00,VWS V14.00,2013-08-13 22:38:00,
2013-08-13 18:43:00,72.4,60.0,32.28,North,360,12.0,14.0,65,0.00,,---,0.00,VWS V14.00,2013-08-13 22:43:00,
2013-08-13 18:49:00,72.4,60.0,32.28,North,355,6.0,14.0,65,0.00,,---,0.00,VWS V14.00,2013-08-13 22:49:00,
2013-08-13 18:54:00,72.5,60.5,32.28,NNW,342,5.0,14.0,66,0.00,,---,0.00,VWS V14.00,2013-08-13 22:54:00,
2013-08-13 18:59:00,72.4,59.5,32.28,NW,318,6.0,15.0,64,0.00,,---,0.00,VWS V14.00,2013-08-13 22:59:00,
2013-08-13 19:04:00,72.2,59.8,32.28,NNW,340,5.0,15.0,65,0.00,,---,0.00,VWS V14.00,2013-08-13 23:04:00,
2013-08-13 19:09:00,72.1,60.1,32.28,NW,321,6.0,10.0,66,0.00,,---,0.00,VWS V14.00,2013-08-13 23:09:00,
2013-08-13 19:14:00,72.1,59.7,32.28,NNW,341,7.0,12.0,65,0.00,,---,0.00,VWS V14.00,2013-08-13 23:14:00,
2013-08-13 19:19:00,72.0,60.0,32.28,NW,308,3.0,13.0,66,0.00,,---,0.00,VWS V14.00,2013-08-13 23:19:00,
2013-08-13 19:24:00,71.8,59.8,32.28,NW,326,4.0,13.0,66,0.00,,---,0.00,VWS V14.00,2013-08-13 23:24:00,
2013-08-13 19:29:00,71.5,59.6,32.28,NNW,329,9.0,15.0,66,0.00,,---,0.00,VWS V14.00,2013-08-13 23:29:00,
2013-08-13 19:34:00,71.3,58.9,25.52,NW,326,10.0,17.0,65,0.00,,---,0.00,VWS V14.00,2013-08-13 23:34:00,
2013-08-13 19:39:00,71.1,59.2,25.52,NNW,334,6.0,15.0,66,0.00,,---,0.00,VWS V14.00,2013-08-13 23:39:00,
2013-08-13 19:44:00,71.0,59.5,25.52,NW,304,7.0,15.0,67,0.00,,---,0.00,VWS V14.00,2013-08-13 23:44:00,
2013-08-13 19:50:00,70.8,59.3,25.52,WNW,290,10.0,15.0,67,0.00,,---,0.00,VWS V14.00,2013-08-13 23:50:00,
2013-08-13 19:55:00,70.6,58.7,25.52,NNW,327,13.0,15.0,66,0.00,,---,0.00,VWS V14.00,2013-08-13 23:55:00,
2013-08-13 20:00:00,70.4,58.9,25.52,North,355,6.0,15.0,67,0.00,,---,0.00,VWS V14.00,2013-08-14 00:00:00,
2013-08-13 20:05:00,70.2,58.3,25.52,NNW,348,11.0,15.0,66,0.00,,---,0.00,VWS V14.00,2013-08-14 00:05:00,
2013-08-13 20:10:00,69.9,58.0,25.52,NNW,338,11.0,13.0,66,0.00,,---,0.00,VWS V14.00,2013-08-14 00:10:00,
2013-08-13 20:15:00,69.8,58.4,25.52,NNW,338,5.0,13.0,67,0.00,,---,0.00,VWS V14.00,2013-08-14 00:15:00,
2013-08-13 20:20:00,69.6,57.8,25.52,NNE,12,9.0,13.0,66,0.00,,---,0.00,VWS V14.00,2013-08-14 00:20:00,
2013-08-13 20:25:00,69.4,57.1,25.52,NW,325,12.0,13.0,65,0.00,,---,0.00,VWS V14.00,2013-08-14 00:25:00,
2013-08-13 20:30:00,69.1,56.8,25.52,NNW,341,5.0,16.0,65,0.00,,---,0.00,VWS V14.00,2013-08-14 00:30:00,
2013-08-13 20:35:00,69.0,56.8,25.52,NW,310,6.0,16.0,65,0.00,,---,0.00,VWS V14.00,2013-08-14 00:35:00,
2013-08-13 20:40:00,68.8,56.6,25.52,North,355,6.0,13.0,65,0.00,,---,0.00,VWS V14.00,2013-08-14 00:40:00,
2013-08-13 20:45:00,68.7,56.0,25.52,NNW,340,6.0,13.0,64,0.00,,---,0.00,VWS V14.00,2013-08-14 00:45:00,
2013-08-13 20:50:00,68.4,56.2,25.52,NNW,327,5.0,13.0,65,0.00,,---,0.00,VWS V14.00,2013-08-14 00:50:00,
2013-08-13 20:55:00,68.1,55.9,25.52,NNW,327,7.0,13.0,65,0.00,,---,0.00,VWS V14.00,2013-08-14 00:55:00,
2013-08-13 21:01:00,67.6,55.8,25.52,NW,314,4.0,13.0,66,0.00,,---,0.00,VWS V14.00,2013-08-14 01:01:00,
2013-08-13 21:06:00,67.0,55.3,25.52,NW,307,3.0,13.0,66,0.00,,---,0.00,VWS V14.00,2013-08-14 01:06:00,
2013-08-13 21:07:00,67.0,55.3,25.52,WNW,296,5.0,13.0,66,0.00,,---,0.00,VWS V14.00,2013-08-14 01:07:00,
2013-08-13 21:12:00,66.7,54.2,25.52,WNW,302,7.0,10.0,64,0.00,,---,0.00,VWS V14.00,2013-08-14 01:12:00,
2013-08-13 21:17:00,66.6,54.1,25.52,NW,306,3.0,10.0,64,0.00,,---,0.00,VWS V14.00,2013-08-14 01:17:00,
2013-08-13 21:22:00,66.3,53.3,25.52,NNW,327,6.0,11.0,63,0.00,,---,0.00,VWS V14.00,2013-08-14 01:22:00,
2013-08-13 21:27:00,66.1,53.2,25.52,NW,323,6.0,13.0,63,0.00,,---,0.00,VWS V14.00,2013-08-14 01:27:00,
2013-08-13 21:32:00,65.9,53.0,25.52,NW,313,5.0,13.0,63,0.00,,---,0.00,VWS V14.00,2013-08-14 01:32:00,
2013-08-13 21:37:00,65.7,52.8,25.52,NW,315,4.0,13.0,63,0.00,,---,0.00,VWS V14.00,2013-08-14 01:37:00,
2013-08-13 21:42:00,65.4,52.5,25.52,WNW,295,6.0,8.0,63,0.00,,---,0.00,VWS V14.00,2013-08-14 01:42:00,
2013-08-13 21:47:00,65.1,52.2,25.52,NNW,336,7.0,10.0,63,0.00,,---,0.00,VWS V14.00,2013-08-14 01:47:00,
2013-08-13 21:52:00,65.0,52.1,25.52,NW,317,9.0,10.0,63,0.00,,---,0.00,VWS V14.00,2013-08-14 01:52:00,
2013-08-13 21:57:00,64.9,52.0,25.52,WNW,298,10.0,12.0,63,0.00,,---,0.00,VWS V14.00,2013-08-14 01:57:00,
2013-08-13 22:02:00,64.7,52.3,25.52,WNW,290,5.0,12.0,64,0.00,,---,0.00,VWS V14.00,2013-08-14 02:02:00,
2013-08-13 22:07:00,64.5,52.1,25.52,NW,308,4.0,4.0,64,0.00,,---,0.00,VWS V14.00,2013-08-14 02:07:00,
2013-08-13 22:12:00,64.3,51.9,25.52,NW,306,5.0,11.0,64,0.00,,---,0.00,VWS V14.00,2013-08-14 02:12:00,
2013-08-13 22:17:00,64.2,52.2,25.52,NW,308,4.0,11.0,65,0.00,,---,0.00,VWS V14.00,2013-08-14 02:17:00,
2013-08-13 22:23:00,64.0,51.6,25.52,NW,312,4.0,12.0,64,0.00,,---,0.00,VWS V14.00,2013-08-14 02:23:00,
2013-08-13 22:28:00,63.8,51.8,25.52,NNW,327,5.0,12.0,65,0.00,,---,0.00,VWS V14.00,2013-08-14 02:28:00,
2013-08-13 22:33:00,63.7,51.7,25.52,NW,324,2.0,12.0,65,0.00,,---,0.00,VWS V14.00,2013-08-14 02:33:00,
2013-08-13 22:38:00,63.6,51.6,25.52,WNW,292,4.0,7.0,65,0.00,,---,0.00,VWS V14.00,2013-08-14 02:38:00,
2013-08-13 22:43:00,63.4,51.9,25.52,NW,315,4.0,10.0,66,0.00,,---,0.00,VWS V14.00,2013-08-14 02:43:00,
2013-08-13 22:48:00,63.3,51.8,25.52,NNW,331,2.0,11.0,66,0.00,,---,0.00,VWS V14.00,2013-08-14 02:48:00,
2013-08-13 22:53:00,63.1,51.6,25.52,NNW,338,3.0,11.0,66,0.00,,---,0.00,VWS V14.00,2013-08-14 02:53:00,
2013-08-13 22:58:00,62.9,51.4,25.52,NW,311,7.0,11.0,66,0.00,,---,0.00,VWS V14.00,2013-08-14 02:58:00,
2013-08-13 23:03:00,62.7,51.2,25.52,WNW,299,0.0,11.0,66,0.00,,---,0.00,VWS V14.00,2013-08-14 03:03:00,
2013-08-13 23:08:00,62.6,51.5,25.52,NW,323,5.0,7.0,67,0.00,,---,0.00,VWS V14.00,2013-08-14 03:08:00,
2013-08-13 23:13:00,62.6,51.1,25.52,NW,309,2.0,7.0,66,0.00,,---,0.00,VWS V14.00,2013-08-14 03:13:00,
2013-08-13 23:18:00,62.4,50.9,25.52,NW,324,6.0,9.0,66,0.00,,---,0.00,VWS V14.00,2013-08-14 03:18:00,
2013-08-13 23:23:00,62.3,51.2,25.52,WNW,300,5.0,9.0,67,0.00,,---,0.00,VWS V14.00,2013-08-14 03:23:00,
2013-08-13 23:28:00,62.2,51.1,25.52,NW,321,3.0,9.0,67,0.00,,---,0.00,VWS V14.00,2013-08-14 03:28:00,
2013-08-13 23:33:00,62.0,51.3,25.52,NW,326,8.0,9.0,68,0.00,,---,0.00,VWS V14.00,2013-08-14 03:33:00,
2013-08-13 23:39:00,62.0,51.3,25.52,NW,304,3.0,5.0,68,0.00,,---,0.00,VWS V14.00,2013-08-14 03:39:00,
2013-08-13 23:44:00,61.8,50.7,25.52,WNW,303,5.0,8.0,67,0.00,,---,0.00,VWS V14.00,2013-08-14 03:44:00,
2013-08-13 23:49:00,61.7,50.6,25.52,NW,321,7.0,10.0,67,0.00,,---,0.00,VWS V14.00,2013-08-14 03:49:00,
2013-08-13 23:54:00,61.7,51.0,25.52,NNW,327,7.0,11.0,68,0.00,,---,0.00,VWS V14.00,2013-08-14 03:54:00,
2013-08-13 23:59:00,61.7,51.0,25.52,NNW,329,5.0,11.0,68,0.00,,---,0.00,VWS V14.00,2013-08-14 03:59:00,